Location: Recife
(8.0585°S, 34.8848°W)
Time: 20:42:42
(UTC-03:00)

A-11 Canister half - Pass Details

Date: 21 April 2026
Orbit: 1523 x 1684 km, 47.3° (Epoch: 16 May)

Event Time Altitude Azimuth Distance (km) Brightness Sun altitude
Rises 06:08:08 0° 353° (N) 4,870 11.7 10.4°
Reaches altitude 10° 06:12:45 10° 11° (N) 3,859 11.5 11.5°
Maximum altitude 06:18:52 18° 50° (NE) 3,215 12.1 13.0°
Drops below altitude 10° 06:24:52 10° 90° (E) 3,788 13.1 14.4°
Sets 06:29:15 0° 107° (ESE) 4,747 12.6 15.4°
